This is the latest recevied weather packets stored in our database for station/object KD8DLP-13. If no packets are shown the sender has not sent any weather packets the latest 10 day(s).
| Time | Temp. | Humidity | Pressure | Rain* | Wind** | Luminosity | Snow |
|---|---|---|---|---|---|---|---|
| 1777394830 | 13.33° C | 76% | 1013.1 hPa | 0 mm | - | 381 W/m² | - |
| 1777394526 | 13.33° C | 79% | 1013 hPa | 0 mm | - | 464 W/m² | - |
| 1777394223 | 12.78° C | 79% | 1012.9 hPa | 0 mm | - | 526 W/m² | - |
| 1777393918 | 12.22° C | 81% | 1012.8 hPa | 0 mm | - | 273 W/m² | - |
| 1777393617 | 12.78° C | 81% | 1012.9 hPa | 0 mm | - | 203 W/m² | - |
| 1777393307 | 12.78° C | 82% | 1012.8 hPa | 0 mm | - | 291 W/m² | - |
| 1777393005 | 12.78° C | 84% | 1012.8 hPa | 0 mm | - | 282 W/m² | - |
| 1777392700 | 12.22° C | 84% | 1012.6 hPa | 0 mm | - | 215 W/m² | - |
| 1777392397 | 12.22° C | 85% | 1012.8 hPa | 0 mm | - | 225 W/m² | - |
| 1777392092 | 12.22° C | 86% | 1012.9 hPa | 0 mm | - | 263 W/m² | - |
| 1777391787 | 11.67° C | 86% | 1012.7 hPa | 0 mm | - | 263 W/m² | - |
| 1777391483 | 11.67° C | 87% | 1012.7 hPa | 0 mm | - | 258 W/m² | - |
| 1777391180 | 11.67° C | 88% | 1012.4 hPa | 0 mm | - | 173 W/m² | - |
| 1777390876 | 11.67° C | 88% | 1012.5 hPa | 0 mm | - | 181 W/m² | - |
| 1777390573 | 11.67° C | 88% | 1012.3 hPa | 0 mm | - | 180 W/m² | - |
| 1777390270 | 12.22° C | 89% | 1012.3 hPa | 0 mm | - | 172 W/m² | - |
| 1777389965 | 11.67° C | 89% | 1012.3 hPa | 0 mm | - | 192 W/m² | - |
| 1777389662 | 11.11° C | 90% | 1012.4 hPa | 0 mm | - | 232 W/m² | - |
| 1777389358 | 11.67° C | 89% | 1012.3 hPa | 0 mm | - | 184 W/m² | - |
| 1777389057 | 11.67° C | 89% | 1012.3 hPa | 0 mm | - | 156 W/m² | - |
| 1777388753 | 11.67° C | 89% | 1012.2 hPa | 0 mm | - | 185 W/m² | - |
| 1777388450 | 11.67° C | 89% | 1012 hPa | 0 mm | - | 238 W/m² | - |
| 1777388144 | 11.67° C | 89% | 1012 hPa | 0 mm | - | 213 W/m² | - |
| 1777387840 | 11.11° C | 90% | 1011.7 hPa | 0 mm | - | 236 W/m² | - |
| 1777387538 | 11.11° C | 90% | 1011.8 hPa | 0 mm | - | 168 W/m² | - |
* Rain latest hour (hover to see other rain measurements)
** Current wind speed in m/s (hover to see current wind gust speed)